[[{"header":{"parameterUnit":"m.s-1","parameterCategory":1,"la1":30.2991,"la2":30.254,"lo1":-89.0895,"lo2":-89.0444,"dy":0.0017,"dx":0.0017,"nx":28,"ny":28,"refTime":"2026-01-06T03:00:00:Z","depth":0,"parameterNumber":2,"parameterNumberName":"U-component_of_WINDS"},"data":[0,0,0,0,0,0,0,0,0,0,0,0,0,0,0,0,0,0,0,0,0,0,0,0,0,0,0,0,0,0,0,0,0,0,0,0,0,0,0,0,0,0,0,0,0,0,0,0,0,0,0,0,0,0,0,0,0,0,1.1791,1.1794,0,1.2,1.2002,1.2005,1.2076,1.2075,1.2074,1.2073,1.2291,1.2298,1.2304,0,0,0,0,0,0,0,0,0,0,0,0,0,1.1459,1.1464,1.1791,1.1794,1.1796,1.2,1.2003,1.2005,1.2076,1.2075,1.2074,1.2073,1.2289,1.2297,1.2305,0,0,0,0,0,0,0,0,0,0,0,0,0,1.1629,1.1466,1.1791,1.1856,1.1864,1.1999,1.2003,1.2006,1.2076,1.2075,1.2074,1.2072,1.2287,1.2296,1.2306,1.2393,0,0,1.2336,1.234,0,0,0,0,0,0,0,0,1.1619,1.1641,1.1844,1.1852,1.1861,1.201,1.1965,1.2136,1.2077,1.1996,1.2073,1.2072,1.2199,1.2216,1.2258,1.2403,1.2412,1.2337,1.2343,1.2347,1.235,0,0,0,0,0,0,0,1.1607,1.1632,1.1874,1.1847,1.1857,1.1877,1.1899,1.1998,1.2102,1.2003,1.2008,1.2032,1.2204,1.2249,1.2264,1.2415,1.2337,1.2346,1.2352,1.2356,1.2643,1.2645,0,0,0,0,0,0,1.1584,1.1622,1.1867,1.188,1.1734,1.1883,1.1909,1.1964,1.2101,1.2121,1.2033,1.2034,1.2232,1.2252,1.2272,1.2384,1.2347,1.2356,1.2362,1.2642,1.2644,1.2645,0,0,0,0,0,0,1.1576,1.1605,1.1859,1.1753,1.1787,1.1891,1.1952,1.1969,1.2014,1.2124,1.2143,1.2059,1.2232,1.2258,1.2362,1.2392,1.2361,1.237,1.264,1.2642,1.2645,1.2606,0,0,0,0,0,0,1.1567,1.1602,1.1635,1.1753,1.1792,1.1944,1.1953,1.1974,1.203,1.2034,1.2154,1.2173,1.2233,1.2347,1.2372,1.2405,1.2378,1.2637,1.2641,1.2644,1.2605,1.2607,1.2609,0,0,0,0,0,1.1554,1.1616,1.1636,1.1665,1.1835,1.1946,1.1968,1.2035,1.2032,1.2067,1.2138,1.2169,1.2384,1.2357,1.2386,1.2422,1.2636,1.264,1.2643,1.2605,1.2607,1.2609,0,0,0,0,0,0,1.15,1.1633,1.1656,1.1758,1.184,1.1957,1.2003,1.2035,1.2121,1.2121,1.2202,1.2229,1.2327,1.2385,1.2352,1.2514,1.2512,1.2522,1.2473,1.2476,1.2477,1.2462,1.2386,0,0,0,0,0,1.15,1.1577,1.169,1.1768,1.1808,1.1898,1.1949,1.1994,1.2082,1.2118,1.2197,1.2283,1.237,1.2426,1.2512,1.2614,1.2642,1.2653,1.2655,1.2656,1.2664,1.2723,1.273,1.2658,1.2658,1.2658,0,0,1.15,1.1582,1.1626,1.176,1.1828,1.1908,1.1927,1.2011,1.2071,1.2131,1.2234,1.2295,1.2397,1.25,1.2549,1.2551,1.269,1.2661,1.2661,1.2668,1.2728,1.2735,1.2741,1.2661,1.266,1.266,0,0,1.1542,1.1611,1.1685,1.1753,1.1857,1.1916,1.1934,1.2047,1.2089,1.2194,1.224,1.2314,1.2463,1.2534,1.2589,1.2658,1.2691,1.2684,1.2694,1.2751,1.2756,1.2762,1.2788,1.2796,1.2691,1.2691,1.2691,0,1.153,1.1651,1.1719,1.1801,1.1858,1.1915,1.1991,1.2055,1.2181,1.2221,1.2221,1.2409,1.2481,1.2603,1.2619,1.2662,1.2686,1.2671,1.275,1.2756,1.2762,1.2788,1.2797,1.269,1.269,1.269,1.269,0,1.1631,1.1714,1.1762,1.1882,1.1945,1.2023,1.2105,1.2161,1.2201,1.2261,1.2367,1.2456,1.2562,1.2594,1.2633,1.2721,1.272,1.2733,1.2733,1.2766,1.2792,1.2802,1.2688,1.2689,1.2689,1.2689,0,0,1.1645,1.1801,1.1818,1.1873,1.1992,1.2058,1.214,1.2242,1.2289,1.2375,1.2447,1.2571,1.2585,1.2648,1.2696,1.2746,1.2796,1.2754,1.2758,1.276,1.2901,1.289,1.29,1.2818,1.282,1.2822,1.2892,0,1.1703,1.1849,1.1914,1.2032,1.2111,1.2166,1.2237,1.2318,1.2377,1.2453,1.2519,1.2606,1.2617,1.2655,1.2707,1.2779,1.2826,1.2775,1.2887,1.289,1.2861,1.2913,1.2902,1.2964,1.2903,1.2905,1.2906,0,1.179,1.1875,1.2,1.211,1.2145,1.2208,1.2307,1.2379,1.2473,1.2513,1.2582,1.2628,1.2718,1.2711,1.2837,1.28,1.285,1.2893,1.2897,1.2911,1.29,1.2929,1.2986,1.2995,1.2922,1.2921,1.292,0,1.1789,1.1934,1.2028,1.2074,1.2204,1.2247,1.2303,1.2396,1.2454,1.2541,1.258,1.2677,1.273,1.2805,1.2877,1.2865,1.2996,1.2995,1.3033,1.3031,1.3059,1.3056,1.3125,1.3089,1.3089,1.3089,1.3089,0,1.1847,1.1922,1.2029,1.2087,1.2173,1.2247,1.2331,1.2392,1.2474,1.2546,1.26,1.2667,1.2757,1.2836,1.2893,1.2989,1.3012,1.3048,1.3062,1.3044,1.3039,1.3078,1.3076,1.3092,1.3091,1.309,1.309,0,1.186,1.1935,1.2041,1.2155,1.2186,1.2244,1.2343,1.2403,1.2463,1.2554,1.258,1.2676,1.2772,1.2851,1.2976,1.3015,1.3116,1.3132,1.3083,1.3091,1.3125,1.3121,1.3222,1.324,1.319,1.3191,1.3191,0,1.1893,1.1951,1.2072,1.2123,1.2178,1.2261,1.2319,1.2395,1.2455,1.2566,1.2613,1.2712,1.2795,1.2946,1.3029,1.3125,1.3145,1.3174,1.316,1.314,1.3147,1.3143,1.315,1.3175,1.3175,1.3175,1.3175,0,1.1943,1.1977,1.2059,1.2154,1.2223,1.2302,1.2382,1.2422,1.2513,1.2577,1.2675,1.2739,1.2868,1.2966,1.3072,1.3132,1.317,1.3179,1.3193,1.3175,1.3145,1.3163,1.3088,1.3176,1.3176,1.3176,1.3176,1.3176,1.1968,1.2023,1.2116,1.2206,1.2274,1.2348,1.241,1.2478,1.2561,1.267,1.271,1.2811,1.2905,1.305,1.3111,1.3192,1.3197,1.3217,1.3222,1.3226,1.3224,1.3131,1.3212,1.3212,1.3212,1.3212,1.3212,0,1.2022,1.2084,1.2166,1.2277,1.2348,1.2375,1.2466,1.2524,1.2611,1.2695,1.2776,1.2889,1.2985,1.3075,1.3176,1.3224,1.3244,1.3248,1.3246,1.3259,1.3214,1.3192,1.323,1.323,1.323,1.323,1.323,1.323,1.2058,1.2153,1.2198,1.2329,1.2392,1.2489,1.2539,1.2608,1.2676,1.2799,1.2878,1.2936,1.3023,1.3131,1.3221,1.3245,1.328,1.328,1.3309,1.3265,1.3262,1.326,1.3239,1.3287,1.3287,1.3348,1.3348,1.3348]},{"header":{"parameterUnit":"m.s-1","parameterCategory":1,"la1":30.2991,"la2":30.254,"lo1":-89.0895,"lo2":-89.0444,"dy":0.0017,"dx":0.0017,"nx":28,"ny":28,"refTime":"2026-01-06T03:00:00:Z","depth":0,"parameterNumber":3,"parameterNumberName":"V-component_of_WINDS"},"data":[0,0,0,0,0,0,0,0,0,0,0,0,0,0,0,0,0,0,0,0,0,0,0,0,0,0,0,0,0,0,0,0,0,0,0,0,0,0,0,0,0,0,0,0,0,0,0,0,0,0,0,0,0,0,0,0,0,0,1.5445,1.5446,0,1.5468,1.5468,1.5468,1.5477,1.5477,1.5477,1.5477,1.5498,1.5499,1.55,0,0,0,0,0,0,0,0,0,0,0,0,0,1.5408,1.5409,1.5445,1.5446,1.5446,1.5468,1.5468,1.5468,1.5477,1.5477,1.5477,1.5477,1.5498,1.5499,1.55,0,0,0,0,0,0,0,0,0,0,0,0,0,1.5427,1.5409,1.5445,1.5453,1.5454,1.5468,1.5468,1.5468,1.5477,1.5477,1.5477,1.5477,1.5498,1.5499,1.55,1.5507,0,0,1.5503,1.5503,0,0,0,0,0,0,0,0,1.5426,1.5428,1.5452,1.5453,1.5454,1.547,1.5463,1.5481,1.5477,1.5468,1.5477,1.5477,1.5489,1.549,1.5495,1.5508,1.5509,1.5503,1.5503,1.5504,1.5504,0,0,0,0,0,0,0,1.5425,1.5427,1.5454,1.5452,1.5453,1.5455,1.5457,1.5466,1.5479,1.5469,1.547,1.5473,1.5489,1.5494,1.5495,1.5509,1.5503,1.5503,1.5504,1.5504,1.5529,1.5529,0,0,0,0,0,0,1.5422,1.5426,1.5453,1.5455,1.5439,1.5456,1.5458,1.5465,1.5479,1.5481,1.5473,1.5473,1.5492,1.5494,1.5496,1.5506,1.5504,1.5504,1.5505,1.5529,1.5529,1.5529,0,0,0,0,0,0,1.5421,1.5425,1.5453,1.5441,1.5444,1.5456,1.5463,1.5465,1.547,1.5481,1.5483,1.5475,1.5492,1.5495,1.5504,1.5506,1.5505,1.5506,1.5529,1.5529,1.5529,1.5524,0,0,0,0,0,0,1.542,1.5424,1.5428,1.5441,1.5445,1.5461,1.5463,1.5466,1.5471,1.5472,1.5484,1.5486,1.5493,1.5503,1.5505,1.5508,1.5506,1.5529,1.5529,1.5529,1.5524,1.5524,1.5524,0,0,0,0,0,1.5419,1.5425,1.5428,1.5431,1.5449,1.5461,1.5463,1.5471,1.5472,1.5475,1.5482,1.5486,1.5506,1.5504,1.5506,1.5509,1.5529,1.5529,1.5529,1.5524,1.5524,1.5524,0,0,0,0,0,0,1.5411,1.5427,1.543,1.544,1.5449,1.5462,1.5467,1.5471,1.5479,1.5479,1.5488,1.5491,1.55,1.5505,1.5503,1.5517,1.5517,1.5518,1.5513,1.5513,1.5513,1.5511,1.5507,0,0,0,0,0,1.541,1.5419,1.5432,1.544,1.5444,1.5455,1.546,1.5465,1.5475,1.5478,1.5486,1.5495,1.5503,1.5508,1.5516,1.5525,1.5528,1.5528,1.5528,1.5528,1.5529,1.5534,1.5534,1.553,1.553,1.553,0,0,1.5409,1.5419,1.5424,1.5439,1.5446,1.5455,1.5458,1.5466,1.5472,1.5479,1.5489,1.5495,1.5505,1.5514,1.5519,1.5519,1.5531,1.5529,1.5528,1.5529,1.5534,1.5535,1.5535,1.553,1.553,1.553,0,0,1.5412,1.542,1.5428,1.5435,1.5447,1.5454,1.5456,1.5468,1.5473,1.5483,1.5488,1.5495,1.5509,1.5516,1.5521,1.5526,1.553,1.5528,1.5528,1.5533,1.5533,1.5534,1.5536,1.5536,1.5529,1.5529,1.5529,0,1.5409,1.5422,1.5431,1.544,1.5446,1.5453,1.5461,1.5467,1.548,1.5484,1.5485,1.5503,1.551,1.5521,1.5522,1.5526,1.5528,1.5527,1.5533,1.5533,1.5534,1.5535,1.5536,1.5529,1.5529,1.5529,1.5529,0,1.5418,1.5427,1.5432,1.5446,1.5452,1.546,1.5469,1.5475,1.548,1.5486,1.5496,1.5505,1.5515,1.5518,1.5522,1.5529,1.5529,1.5531,1.5532,1.5534,1.5536,1.5536,1.5528,1.5528,1.5528,1.5529,0,0,1.5417,1.5435,1.5437,1.5443,1.5456,1.5463,1.5471,1.5481,1.5486,1.5495,1.5501,1.5513,1.5515,1.5521,1.5526,1.553,1.5534,1.5531,1.5532,1.5532,1.5542,1.5541,1.5541,1.5536,1.5536,1.5536,1.5541,0,1.5421,1.5437,1.5445,1.5456,1.5465,1.5472,1.5478,1.5487,1.5493,1.5501,1.5507,1.5515,1.5517,1.5521,1.5525,1.5532,1.5536,1.5532,1.5542,1.5542,1.554,1.5542,1.5541,1.5546,1.5542,1.5542,1.5542,0,1.5428,1.5438,1.5451,1.5463,1.5467,1.5473,1.5483,1.5491,1.55,1.5504,1.5511,1.5516,1.5524,1.5524,1.5535,1.5532,1.5537,1.5541,1.5541,1.5543,1.5543,1.5544,1.5547,1.5548,1.5543,1.5543,1.5543,0,1.5426,1.5442,1.5452,1.5457,1.5472,1.5476,1.5482,1.5491,1.5497,1.5506,1.551,1.5519,1.5524,1.5531,1.5538,1.5537,1.5548,1.5549,1.5552,1.5551,1.5554,1.5554,1.5558,1.5556,1.5556,1.5556,1.5556,0,1.5431,1.5438,1.5451,1.5457,1.5466,1.5475,1.5483,1.5489,1.5498,1.5505,1.551,1.5517,1.5526,1.5533,1.5538,1.5547,1.5549,1.5552,1.5554,1.5552,1.5552,1.5555,1.5555,1.5556,1.5556,1.5556,1.5556,0,1.543,1.5439,1.545,1.5463,1.5466,1.5472,1.5483,1.5489,1.5495,1.5504,1.5507,1.5516,1.5525,1.5533,1.5544,1.5548,1.5557,1.5558,1.5554,1.5555,1.5557,1.5557,1.5564,1.5566,1.5563,1.5563,1.5563,0,1.5432,1.5438,1.5452,1.5458,1.5464,1.5472,1.5479,1.5487,1.5493,1.5505,1.5509,1.5518,1.5526,1.554,1.5548,1.5556,1.5558,1.556,1.556,1.5558,1.5559,1.5558,1.5559,1.556,1.556,1.556,1.556,0,1.5435,1.544,1.5449,1.5459,1.5467,1.5475,1.5484,1.5488,1.5498,1.5504,1.5513,1.552,1.5532,1.5541,1.555,1.5556,1.556,1.5561,1.5562,1.556,1.5557,1.5559,1.5554,1.556,1.556,1.556,1.556,1.556,1.5437,1.5442,1.5453,1.5463,1.547,1.5478,1.5485,1.5492,1.55,1.5511,1.5515,1.5525,1.5534,1.5548,1.5553,1.556,1.5561,1.5563,1.5563,1.5563,1.5563,1.5556,1.5562,1.5562,1.5562,1.5562,1.5562,0,1.544,1.5448,1.5457,1.5469,1.5476,1.548,1.549,1.5495,1.5504,1.5513,1.552,1.5531,1.554,1.5549,1.5558,1.5562,1.5564,1.5564,1.5564,1.5565,1.5562,1.556,1.5562,1.5562,1.5562,1.5562,1.5562,1.5562,1.5443,1.5454,1.5459,1.5473,1.548,1.549,1.5495,1.5502,1.5509,1.5521,1.5529,1.5534,1.5543,1.5553,1.5561,1.5563,1.5566,1.5566,1.5569,1.5566,1.5565,1.5565,1.5564,1.5566,1.5566,1.5571,1.5571,1.5571]}]]